Location: Haliburton Scout Reserve
(45.0900°N, 78.3200°W)
Time: 18:53:47
(UTC-04:00)

Courier 1B Rocket - Pass Details

Date: 12 February 2023
Orbit: 920 x 1202 km, 28.2° (Epoch: 22 March)

Event Time Altitude Azimuth Distance (km) Brightness Sun altitude
Rises 14:17:11 0° 235° (SW) 3,841 9.1 26.3°
Reaches altitude 10° 14:20:56 10° 217° (SW) 2,828 9.3 26.0°
Maximum altitude 14:25:15 18° 177° (S) 2,249 8.1 25.6°
Drops below altitude 10° 14:29:25 10° 138° (SE) 2,707 7.6 25.2°
Sets 14:32:54 0° 119° (ESE) 3,612 7.9 24.8°
